ATLAS 5 CENTAUR DEB, 52045

Orbit data source: Space-Track

ATLAS 5 CENTAUR DEB, 52045 is space debris in HEO originally from a launch on Wed, 17 Oct 2018 UTC launched from the Air Force Eastern Test Range (AFETR). Debris objects in space refer to the collection of defunct objects orbiting the Earth. Examples of debris include non-operational satellites, rocket bodies, and fragments generated from explosions, collisions, or faulty payload assembly.

Loading next visibility...
Identifier
52045, 2018-079GP
Orbit
HEO
Country
Flag of USUS
Related business
Flag of USUnited Launch Alliance/Lockheed Martin (US)
Manufacturer
ULA Decatur
Mission
Spacecraft
Bus & Motor
Unknown
Mass
Unknown
Launch date (UTC)
2018-10-17 (8 years ago)
Launch vehicle
Unknown
Launch site
Air Force Eastern Test Range (AFETR)
Object type
Payload
Rocket body
Debris
Shape & HBR
Unknown shape, 1.1 m
Radar Cross Section
RCS unknown

Expand to show TLE details & history
Last TLE update: 3 months ago

TLE from 3 months ago
0 ATLAS 5 CENTAUR DEB
1 52045U 18079GP  26134.27264550 -.00000045  00000-0  00000-0 0  9998
2 52045  13.2531  62.0052 4565465 253.0346  53.4037  1.72870191 30108
Epoch: 2026-05-14T06:32Z
TLE epoch observation values (Epoch: 2026-05-14T06:32:36.571Z)
Latitude
0.00002°
Longitude
91.72106°
Altitude
20,411.406 km
Speed
4.021 km/s
True Right ascension
04h 07m 34s
True Declination
0° 00' 00"
Sunlit
Object was in daylight at epoch
Visualization orbit readout
Latitude
Unknown
Longitude
Unknown
Altitude
Unknown
Speed
Unknown
Apparent Right ascension
Unknown
Apparent Declination
Unknown
Sunlit
N/A
Visualization observer readout
Local Sidereal Time
15:52:57
Azimuth
Unknown
Elevation
Unknown
Doppler factor
Unknown
Orbital elements
Apogee altitude
36,339.656 km
Perigee altitude
9,560.341 km
Semi-major axis
29,328.136 km
Eccentricity
0.45655
Inclination
13.2531°
RAAN
62.0052°
Arg. of periapsis
253.0346°
True anomaly
107.01029°
Mean anomaly
53.4037°
Eccentric anomaly
79.08901°
Mean motion
0.43213 °/min
Orbital period
833.08 mins
BSTAR
0
Loading maneuver chart data...
Computing Atmospheric mass density...

Documentation

Showing up to 5 results
|